24sata.hr alexa rank chart, 24sata.hr alexa rank daily changes

24sata.hr alexa rank chart, 24sata.hr alexa rank daily changes

24sata.hr
Actual rank:
4 069

RANK HISTORY

Date Rank Diff
2017/02/26 4 069 -20
2017/02/25 4 089 -15
2017/02/24 4 104 +7
2017/02/23 4 097 +8
2017/02/22 4 089 +25
2017/02/21 4 064 -6
2017/02/20 4 070 -3
2017/02/19 4 073 -2
2017/02/18 4 075 -5
2017/02/17 4 080 +2
2017/02/16 4 078 +22
2017/02/15 4 056 +12
2017/02/14 4 044 -11
2017/02/13 4 055 +27
2017/02/12 4 028 -6
2017/02/11 4 034 +18
2017/02/10 4 016 -5
2017/02/09 4 021 +3
2017/02/08 4 018 +3
2017/02/07 4 015 +15
2017/02/06 4 000 +7
2017/02/05 3 993 +6
2017/02/04 3 987 +10
2017/02/03 3 977 +22
2017/02/02 3 955 -2
2017/02/01 3 957 +5
2017/01/31 3 952 -24
2017/01/30 3 976 -17
2017/01/29 3 993 -14
2017/01/28 4 007 -8
2017/01/27 4 015 -19
2017/01/26 4 034 -19
2017/01/25 4 053 -5
2017/01/24 4 058 -20
2017/01/23 4 078 -11
2017/01/22 4 089 -21
2017/01/21 4 110 -5
2017/01/20 4 115 -8
2017/01/19 4 123 -17
2017/01/18 4 140 -9
2017/01/17 4 149 -12
2017/01/16 4 161 -7
2017/01/15 4 168 -20
2017/01/14 4 188 +9
2017/01/13 4 179 -20
2017/01/12 4 199 -11
2017/01/11 4 210 -10
2017/01/10 4 220 -4
2017/01/09 4 224 +7
2017/01/08 4 217 -31
2017/01/07 4 248 -35
2017/01/06 4 283 -13
2017/01/05 4 296 -17
2017/01/04 4 313 -38
2017/01/03 4 351 -64
2017/01/02 4 415 -27
2017/01/01 4 442 +13
2016/12/31 4 429 +1
2016/12/30 4 428 -18
2016/12/29 4 446 -17
2016/12/28 4 463

WIDGET FOR YOUR SITE

DOMAINS WITH THE NEAREST RANK

Domain Rank
probiller.com 4 064
impots.gouv.fr 4 065
space.com 4 066
consequenceofsound.net 4 067
dota2.ru 4 068
24sata.hr 4 069
parimatch.com 4 070
jofogas.hu 4 071
yapo.cl 4 072
manuscriptcentral.com 4 073
qyer.com 4 074

DOMAINS WITH THE NEAREST RANK BY TLD .hr

Domain Rank
google.hr 665
index.hr 2 562
jutarnji.hr 3 441
24sata.hr 4 069
njuskalo.hr 4 343
vecernji.hr 6 026
dnevnik.hr 6 240
net.hr 7 349
tportal.hr 9 357